FENGYUN 1C DEB, 30193

Orbit data source: Space-Track

FENGYUN 1C DEB, 30193 is space debris in SSO originally from a launch on Mon, 10 May 1999 UTC launched from the Taiyaun Space Center, China (TSC). Fengyun 1C debris stems from the Chinese weather satellite Fengyun-1C, which was intentionally destroyed by a Chinese anti-satellite missile in 2007. This event dramatically increased the amount of space debris, with thousands of trackable fragments posing hazards to satellites and human spaceflight. The Fengyun 1C debris cloud has become a focal point in discussions about space sustainability and the need for international regulations to prevent the creation of new debris.

Loading next visibility...
Identifier
30193, 1999-025VA
Orbit
SSO
Country
Flag of CNCN / PRC
Related business
Manufacturer
Unknown
Mission
Spacecraft
Bus & Motor
Unknown
Mass
Unknown
Launch date (UTC)
1999-05-10 (27 years ago)
Launch vehicle
Unknown
Launch site
Taiyaun Space Center, China (TSC)
Object type
Payload
Rocket body
Debris
Shape & HBR
Unknown shape, 0.1 m
Radar Cross Section
Medium (>0.1 m² and <1 m²)

Expand to show TLE details & history
Last TLE update: 8 hours ago

TLE from 8 hours ago
0 FENGYUN 1C DEB
1 30193U 99025VA  26169.77687264  .00001750  00000-0  43099-3 0  9993
2 30193  98.7528  90.2637 0103341 286.3344 134.7632 14.50441766 18920
Epoch: 2026-06-18T18:38Z
TLE epoch observation values (Epoch: 2026-06-18T18:38:41.796Z)
Latitude
60.80017°
Longitude
-112.32981°
Altitude
786.625 km
Speed
7.439 km/s
True Right ascension
04h 57m 26s
True Declination
60° 39' 15"
Sunlit
Object was in daylight at epoch
Visualization orbit readout
Latitude
Unknown
Longitude
Unknown
Altitude
Unknown
Speed
Unknown
Apparent Right ascension
Unknown
Apparent Declination
Unknown
Sunlit
N/A
Visualization observer readout
Local Sidereal Time
13:14:35
Azimuth
Unknown
Elevation
Unknown
Doppler factor
Unknown
Orbital elements
Apogee altitude
794.692 km
Perigee altitude
647.959 km
Semi-major axis
7,099.463 km
Eccentricity
0.01033
Inclination
98.7528°
RAAN
90.2637°
Arg. of periapsis
286.3344°
True anomaly
135.5964°
Mean anomaly
134.7632°
Eccentric anomaly
135.18056°
Mean motion
3.62831 °/min
Orbital period
99.22 mins
BSTAR
0.00043099
Loading maneuver chart data...
Computing Atmospheric mass density...

Documentation

Showing up to 5 results
|